Air Quality Table

TIMESTAMP NO2 SO2 PM10 PM2.5 CO TEMP HUM AIRPRES WS WD NO
2022-06-26 09:00 47.96 µg/m3 3.16 µg/m3 N/A N/A N/A 31.23 °C 32.71 % 1,012.55 mbar 3.26 m/s 187.26 Deg 39.72 µg/m3
2022-06-26 08:00 69.72 µg/m3 1.83 µg/m3 N/A N/A N/A 28.66 °C 52.97 % 1,012.61 mbar 1.56 m/s 200.09 Deg 49.14 µg/m3
2022-06-26 07:00 57.19 µg/m3 2 µg/m3 N/A N/A N/A 26.15 °C 55.14 % 1,012.31 mbar 0.96 m/s 201.33 Deg 32.12 µg/m3
2022-06-26 06:00 55.94 µg/m3 2.35 µg/m3 N/A N/A N/A 24.5 °C 67.45 % 1,011.79 mbar 1 m/s 206.77 Deg 43.44 µg/m3
2022-06-26 05:00 29.27 µg/m3 0.7 µg/m3 N/A N/A N/A 26.14 °C 73.7 % 1,011.39 mbar 0.52 m/s 150.12 Deg 1.7 µg/m3
2022-06-26 04:00 41.41 µg/m3 0.99 µg/m3 N/A N/A N/A 26.59 °C 62.2 % 1,011.13 mbar 0.57 m/s 155.93 Deg 1.79 µg/m3
2022-06-26 03:00 66.3 µg/m3 1.64 µg/m3 N/A N/A N/A 25.93 °C 54.23 % 1,010.99 mbar 2.35 m/s 206.67 Deg 12.13 µg/m3
2022-06-26 02:00 68.4 µg/m3 2.07 µg/m3 N/A N/A N/A 26.04 °C 46.01 % 1,011.24 mbar 1.39 m/s 199.46 Deg 50.07 µg/m3
2022-06-26 01:00 54.99 µg/m3 1.77 µg/m3 N/A N/A N/A 26.57 °C 53.25 % 1,011.50 mbar 0.8 m/s 103.27 Deg 29.61 µg/m3
2022-06-26 00:00 64.23 µg/m3 1.82 µg/m3 N/A N/A N/A 27.06 °C 58.34 % 1,011.76 mbar 0.68 m/s 256.53 Deg 32.27 µg/m3
2022-06-25 23:00 48.69 µg/m3 2 µg/m3 N/A N/A N/A 27.25 °C 66.52 % 1,012.09 mbar 0.57 m/s 136.15 Deg 19.93 µg/m3
2022-06-25 22:00 69.77 µg/m3 2.35 µg/m3 N/A N/A N/A 27.72 °C 65.67 % 1,012.15 mbar 0.6 m/s 78.54 Deg 23.96 µg/m3
2022-06-25 21:00 34.35 µg/m3 2.69 µg/m3 N/A N/A N/A 28.99 °C 50.25 % 1,012.01 mbar 0.65 m/s 71.71 Deg 19.99 µg/m3
2022-06-25 20:00 27.08 µg/m3 1.8 µg/m3 N/A N/A N/A 30.14 °C 28.06 % 1,011.60 mbar 1.98 m/s 206.53 Deg 3.49 µg/m3
2022-06-25 19:00 32.12 µg/m3 2.2 µg/m3 N/A N/A N/A 31.19 °C 29.01 % 1,011.51 mbar 2.46 m/s 194.55 Deg 7.93 µg/m3
2022-06-25 18:00 37.58 µg/m3 2.18 µg/m3 N/A N/A N/A 32.46 °C 27.42 % 1,011.50 mbar 2.24 m/s 185.39 Deg 11.05 µg/m3
2022-06-25 17:00 33.34 µg/m3 2.73 µg/m3 N/A N/A N/A 33.09 °C 25.85 % 1,011.58 mbar 2.39 m/s 181.98 Deg 14.84 µg/m3
2022-06-25 16:00 56.2 µg/m3 4.66 µg/m3 N/A N/A N/A 33.58 °C 27.54 % 1,011.99 mbar 2.08 m/s 189.7 Deg 19.27 µg/m3
2022-06-25 15:00 40.35 µg/m3 2.69 µg/m3 N/A N/A N/A 34.49 °C 22.23 % 1,012.20 mbar 1.14 m/s 231.09 Deg 15.37 µg/m3
2022-06-25 14:00 26.84 µg/m3 1.94 µg/m3 N/A N/A N/A 31.3 °C 39.12 % 1,012.55 mbar 0.93 m/s 211.93 Deg 10.07 µg/m3
2022-06-25 13:00 36.72 µg/m3 1.11 µg/m3 N/A N/A N/A 29.24 °C 67.39 % 1,012.94 mbar 0.82 m/s 201.71 Deg 15.1 µg/m3
2022-06-25 12:00 35.43 µg/m3 1.71 µg/m3 N/A N/A N/A 28.46 °C 68.56 % 1,013.23 mbar 0.96 m/s 172.21 Deg 15.16 µg/m3

It is to be noted that the data is provisional and subject to quality assurance procedures. For validated data kindly refer your request to contact.air@era.org.mt